ATLAS 5 CENTAUR DEB, 44651

Orbit data source: Space-Track

ATLAS 5 CENTAUR DEB, 44651 is space debris in HEO originally from a launch on Wed, 17 Oct 2018 UTC launched from the Air Force Eastern Test Range (AFETR). Debris objects in space refer to the collection of defunct objects orbiting the Earth. Examples of debris include non-operational satellites, rocket bodies, and fragments generated from explosions, collisions, or faulty payload assembly.

Loading next visibility...
Identifier
44651, 2018-079M
Orbit
HEO
Country
Flag of USUS
Related business
Flag of USUnited Launch Alliance/Lockheed Martin (US)
Manufacturer
ULA Decatur
Mission
Spacecraft
Bus & Motor
Unknown
Mass
Unknown
Launch date (UTC)
2018-10-17 (7 years ago)
Launch vehicle
Unknown
Launch site
Air Force Eastern Test Range (AFETR)
Object type
Payload
Rocket body
Debris
Shape & HBR
Unknown shape, 1.1 m
Radar Cross Section
RCS unknown

Expand to show TLE details & history
Last TLE update: 2 days ago

TLE from 2 days ago
0 ATLAS 5 CENTAUR DEB
1 44651U 18079M   25292.35047003 -.00000094  00000-0  00000-0 0  9991
2 44651  13.0334  53.8630 4661859 280.2812  32.1520  1.83295390 43665
Epoch: 2025-10-19T08:24Z
TLE epoch observation values (Epoch: 2025-10-19T08:24:40.610Z)
Latitude
0.00001°
Longitude
-100.40795°
Altitude
13,978.007 km
Speed
5.003 km/s
True Right ascension
03h 35m 19s
True Declination
0° 00' 00"
Sunlit
Object was in daylight at epoch
Visualization orbit readout
Latitude
Unknown
Longitude
Unknown
Altitude
Unknown
Speed
Unknown
Apparent Right ascension
Unknown
Apparent Declination
Unknown
Sunlit
N/A
Visualization observer readout
Local Sidereal Time
08:29:20
Azimuth
Unknown
Elevation
Unknown
Doppler factor
Unknown
Orbital elements
Apogee altitude
34,976.308 km
Perigee altitude
8,678.334 km
Semi-major axis
28,205.458 km
Eccentricity
0.46619
Inclination
13.0334°
RAAN
53.863°
Arg. of periapsis
280.2812°
True anomaly
79.95575°
Mean anomaly
32.152°
Eccentric anomaly
53.67062°
Mean motion
0.45819 °/min
Orbital period
785.7 mins
BSTAR
0
Loading maneuver chart data...
Computing Atmospheric mass density...

Documentation

Showing up to 5 results
|